ブレッシ彗星

404P/Bressi (2023)

English version
Home page
Updated on September 18, 2021

---------------------------------------------------------------------

・ プロフィール

符号 404P/2020 M6
検出日 2020年6月17日
検出光度 22.1等
検出者 Pan-STARRS 1 telescope (Haleakala)

・ 写真集

・ 軌道要素

Epoch 2023 Oct. 23.0 TT = JDT 2460240.5
T 2023 Nov. 4.14791 TT                                  Rudenko
q   4.1325830            (2000.0)            P               Q
n   0.09560895     Peri.  169.36927     +0.34902714     -0.92201659
a   4.7366397      Node   260.04094     +0.84682044     +0.38687972
e   0.1275285      Incl.    9.79308     +0.40134175     -0.01447355
P  10.3
From 197 observations 2011 Oct. 24-2021 June 20, mean residual 0".5.

・ 光度変化

        m1 = 3.0 + 5 logΔ + 20 log r

---------------------------------------------------------------------

軌道要素はM.P.E.C. 2021-N06に掲載されたものです。
光度グラフはComet for Windowsで作成したものです。

---------------------------------------------------------------------

Copyright(C) Seiichi Yoshida (comet@aerith.net). All rights reserved.